Theta_e
326 329 328 328 328 326 326 325 323 327 329 327 324 322 325 330 320 315 329 334 327 338 353 350 351 353 346 346 348 343 345 351 351 351 355 361 360 356 358 361 364 366 363 360 356 350 349 351 351 352 353 355 356 355 355 354 354 356 355 356 359 359 359 359 357 356 354 353 355 357 356 354 354 353 351 352 353 353 353 352 351 351 351 352 353 354 356
324 326 325 325 325 324 324 325 326 327 329 327 326 326 329 329 323 324 332 330 334 348 351 348 352 349 346 351 352 346 347 352 352 354 358 360 358 357 356 358 362 364 362 356 353 352 353 352 353 354 354 356 356 354 354 353 354 357 357 356 360 360 359 360 359 358 357 357 357 356 355 354 354 352 352 352 352 351 352 352 351 351 353 354 355 355 355
319 323 323 322 322 321 319 320 324 326 325 326 325 325 329 329 326 328 329 329 339 352 350 350 352 348 347 354 355 356 355 354 353 354 356 357 356 355 357 361 364 365 362 357 353 355 356 355 357 357 357 358 356 353 353 354 355 358 358 359 361 359 359 360 360 359 359 359 358 355 355 354 353 353 353 353 352 352 352 351 351 353 354 355 355 355 354
315 320 322 320 321 321 317 316 321 321 320 321 322 326 335 336 334 333 330 332 343 352 350 350 350 349 352 356 358 360 359 357 358 356 354 360 359 357 360 365 367 365 362 358 354 356 358 358 359 359 358 358 355 352 353 355 356 358 360 362 361 361 361 361 360 360 359 359 357 355 355 355 354 353 354 353 352 353 352 351 352 353 354 355 355 354 352
314 319 321 320 320 317 313 317 325 327 326 325 327 334 340 342 341 340 338 339 348 351 349 349 349 351 356 358 358 358 359 360 360 357 354 358 357 355 359 363 365 364 363 360 357 359 360 359 358 359 359 357 354 352 353 355 358 360 362 363 362 361 361 359 360 360 358 358 356 355 355 355 353 354 354 353 353 353 353 352 352 353 353 353 354 353 352
315 318 320 320 317 313 315 325 333 332 333 332 331 336 341 343 342 343 344 347 347 347 347 349 350 354 357 354 352 356 360 361 361 361 358 357 356 352 356 359 361 362 362 362 360 360 361 359 358 358 358 356 354 354 354 355 359 362 362 362 360 360 358 358 359 358 357 357 356 355 355 355 355 355 354 353 353 352 352 352 352 352 352 351 351 351 351
316 319 319 317 315 317 325 335 335 333 334 334 333 338 343 343 341 344 346 345 344 344 344 345 351 354 353 351 349 350 354 358 361 362 361 360 359 355 355 356 357 361 361 360 359 359 361 361 361 360 359 356 355 356 357 359 361 363 362 361 358 357 358 357 357 357 357 357 355 355 355 354 355 355 353 353 353 351 351 351 349 348 348 347 347 347 347
319 318 316 316 317 323 334 339 334 333 336 335 333 335 340 342 341 342 344 343 343 344 341 342 349 352 352 354 353 347 348 354 357 356 358 360 362 360 356 354 357 360 357 359 361 360 360 362 362 363 362 361 359 360 361 361 362 362 361 360 358 358 358 356 356 356 356 356 355 355 355 354 354 354 353 352 351 349 349 347 346 345 344 344 344 344 344
321 317 316 319 318 322 334 337 335 334 335 335 333 332 337 344 342 341 345 343 343 344 341 341 345 348 351 356 354 346 347 352 353 351 354 356 355 357 356 353 355 354 352 358 361 359 358 361 362 362 363 363 363 364 362 362 362 361 360 359 359 358 357 355 355 355 355 355 355 354 353 353 352 352 351 350 349 348 346 344 343 342 342 343 342 343 343
323 319 319 321 318 323 333 337 335 333 333 334 333 331 336 344 343 340 344 344 343 345 344 343 344 346 350 351 351 346 348 352 352 351 350 351 353 355 352 353 355 352 351 358 361 357 357 360 362 363 362 364 365 364 362 362 361 360 360 358 357 356 355 354 354 355 354 354 354 353 352 351 351 350 350 348 347 346 343 343 342 342 342 342 342 342 342
326 324 322 320 322 330 338 336 333 332 332 333 332 328 333 342 342 339 342 343 342 343 344 344 345 347 348 347 347 343 345 348 349 351 350 349 350 349 350 354 355 354 354 359 359 358 358 360 362 362 361 362 363 363 361 361 361 359 358 356 354 354 354 353 353 353 353 354 354 353 351 350 350 351 349 347 346 343 342 342 343 343 342 341 341 342 343
327 328 324 322 328 336 338 333 332 332 332 333 331 327 332 341 341 338 340 342 341 341 342 343 346 348 347 347 344 339 341 343 345 349 351 352 353 352 350 353 355 355 357 357 358 359 359 360 362 360 359 360 360 360 360 358 357 357 356 354 352 352 352 352 352 352 352 353 354 353 352 351 350 349 347 346 345 343 342 342 343 342 342 341 342 343 343
323 326 325 327 333 337 335 332 334 332 331 333 332 331 337 341 339 338 340 340 341 340 340 341 344 346 347 345 341 338 338 340 342 346 349 350 351 353 353 353 354 354 357 356 355 358 361 360 358 358 358 359 358 358 358 356 356 355 354 353 353 352 351 350 351 351 351 352 353 353 352 350 349 347 346 345 344 343 343 343 343 343 342 341 342 342 341
323 327 328 330 334 335 332 331 332 331 334 336 335 335 338 338 337 337 338 339 341 340 339 340 341 342 341 341 340 339 338 339 341 342 343 347 348 349 352 354 354 353 355 353 351 355 359 357 354 354 356 357 358 358 356 356 356 355 354 353 352 352 352 350 350 350 350 353 353 351 350 349 347 346 345 344 344 343 343 342 342 342 342 341 341 340 339
327 327 329 331 332 333 331 330 332 333 336 337 336 336 336 335 336 337 337 338 340 339 338 339 339 339 339 338 338 338 338 338 339 339 340 342 344 345 348 351 354 354 353 352 349 350 354 354 351 351 352 355 357 357 356 356 356 355 354 353 352 352 351 350 350 350 350 351 351 349 349 348 346 344 344 343 343 343 342 342 342 341 341 341 341 341 340
329 326 328 331 332 330 328 330 333 333 334 334 333 333 333 334 334 336 337 338 337 337 338 338 339 339 339 338 337 338 338 339 338 338 340 342 343 344 344 348 352 353 353 353 350 349 350 351 349 347 351 352 352 353 353 354 354 355 355 353 352 352 351 350 350 349 349 349 348 348 348 347 345 345 344 342 341 341 341 341 342 341 341 341 341 341 340
329 328 329 330 330 329 328 329 330 330 329 330 330 330 332 332 333 334 335 335 335 336 336 336 337 338 338 338 338 337 337 338 338 339 340 340 341 342 342 345 347 348 350 352 350 349 352 353 351 350 352 353 351 351 352 352 354 355 354 353 353 352 351 350 350 349 349 348 347 347 347 345 344 344 344 342 340 340 340 340 341 341 340 340 341 341 340
328 328 328 328 329 329 327 327 328 328 328 328 329 328 330 330 331 331 332 334 335 335 334 335 336 335 335 335 336 337 337 337 338 340 340 340 340 341 341 343 345 346 346 347 346 346 349 352 351 350 351 354 353 351 350 352 353 354 353 354 353 352 351 351 350 349 348 348 346 346 345 344 343 344 343 341 340 341 341 340 341 341 340 340 341 340 340
328 328 329 329 328 327 327 327 328 328 328 328 328 329 329 329 329 330 330 332 333 334 334 335 334 334 333 334 335 337 338 338 338 340 341 342 342 342 343 344 345 346 345 345 346 347 348 349 351 349 348 349 351 351 350 350 351 352 354 354 353 352 351 350 350 349 347 347 345 344 344 343 342 342 342 341 340 341 341 340 341 341 340 339 339 338 340
331 329 329 328 327 327 329 329 328 328 329 328 328 328 328 329 329 329 329 330 331 333 334 333 333 333 332 333 335 335 337 338 340 341 342 342 342 343 344 343 343 345 345 345 346 348 349 349 348 348 347 347 348 348 349 349 349 351 354 354 352 351 351 350 350 350 348 347 346 344 344 343 342 342 341 340 340 341 340 340 341 340 340 340 339 338 340
331 330 330 329 329 329 329 329 329 328 328 328 328 328 328 328 328 329 330 330 331 332 332 331 331 333 332 332 334 335 336 339 340 341 342 343 342 343 343 343 342 343 345 345 346 347 350 350 347 346 345 346 346 346 346 347 348 350 352 353 351 350 350 350 349 349 348 347 346 345 344 343 343 342 341 340 340 341 340 340 340 340 339 340 339 339 339
331 331 331 331 332 331 330 328 328 328 327 328 329 329 329 329 329 329 330 330 330 331 332 330 330 332 332 332 333 333 335 338 339 339 340 342 343 344 345 344 343 342 344 345 343 344 349 350 348 347 347 345 344 345 346 346 347 348 351 352 351 349 349 348 347 347 347 345 345 344 344 344 343 342 339 338 340 341 340 339 338 338 338 338 337 338 339
331 330 330 331 332 332 331 329 328 328 328 329 329 329 330 330 330 330 330 331 331 331 331 331 330 331 332 332 331 331 332 334 336 338 339 340 341 343 345 344 343 342 342 343 342 342 345 345 342 343 348 347 343 345 348 347 347 348 350 350 349 348 348 346 345 345 346 344 343 344 343 343 343 341 338 337 338 337 338 337 336 336 337 336 335 336 337
330 329 328 330 330 331 329 328 327 327 328 329 328 328 329 329 330 330 330 331 332 331 331 331 331 331 331 331 331 331 331 333 334 336 337 338 339 341 344 344 343 342 342 342 343 343 345 344 338 337 344 346 343 344 348 348 347 347 348 347 347 348 347 345 344 344 344 344 343 342 342 344 344 341 340 339 338 336 336 335 334 333 334 334 334 334 334
328 329 329 329 329 329 328 327 327 327 329 329 328 328 328 329 330 330 330 331 331 331 330 330 330 330 330 330 330 330 331 332 333 335 337 339 339 340 342 344 344 343 342 342 342 342 343 344 341 339 343 347 345 343 345 347 348 349 348 346 346 346 346 345 344 342 343 344 343 342 342 343 344 343 340 340 339 337 335 333 332 331 331 332 333 332 332
327 328 328 327 328 328 328 328 328 327 328 329 329 329 330 330 329 329 330 330 330 330 330 330 330 329 329 329 330 330 331 332 333 334 336 338 338 339 341 341 343 345 343 342 342 342 341 340 340 340 343 344 344 345 346 346 346 347 348 347 347 346 346 346 344 343 343 343 343 343 343 343 344 343 342 341 340 338 336 334 332 329 328 329 331 331 331
327 328 328 329 328 328 329 329 329 328 328 329 330 329 330 330 330 329 330 329 329 330 331 330 330 330 330 329 329 330 330 331 333 334 335 337 339 340 340 339 341 343 344 343 342 341 341 341 341 341 339 337 337 341 346 345 344 343 344 345 346 347 347 346 345 344 344 344 344 345 344 344 344 343 343 343 341 340 337 334 332 331 330 329 330 329 330
328 328 328 329 329 330 329 329 329 329 329 330 330 330 330 329 329 329 329 329 329 330 331 331 331 330 331 330 330 331 331 332 333 334 333 336 340 342 341 340 339 340 342 344 343 340 339 339 340 342 342 341 338 338 340 344 345 344 343 344 346 347 348 348 347 345 345 345 344 344 345 345 344 344 344 343 342 341 338 335 333 334 333 332 330 329 328
328 327 327 328 329 330 330 329 328 329 330 329 330 329 329 329 328 329 329 329 330 331 331 331 331 331 332 331 331 333 334 333 334 334 332 334 339 344 344 342 340 338 340 342 344 342 339 338 338 339 340 342 342 341 339 341 344 345 345 346 347 348 349 350 348 347 346 346 346 345 346 346 345 344 344 343 342 342 340 336 335 335 335 334 331 329 328
327 327 327 328 328 328 329 328 328 327 328 328 329 328 328 329 329 329 330 330 331 331 331 331 331 332 332 332 332 334 334 333 333 334 333 333 338 343 344 343 341 339 339 340 343 344 342 340 339 338 334 333 339 344 344 344 344 346 348 348 348 350 350 350 350 349 348 347 347 347 347 347 346 345 344 342 342 342 341 339 337 337 337 336 332 329 329
326 326 328 328 328 328 329 329 329 329 329 328 328 329 329 329 330 330 330 331 331 331 331 332 332 331 332 332 333 334 335 334 334 333 333 332 336 340 342 342 340 339 339 338 339 342 344 345 344 342 338 335 338 343 346 346 346 348 349 349 349 350 350 350 350 351 349 348 349 348 348 347 346 345 344 343 342 342 341 340 339 338 339 338 335 332 332
327 326 328 329 329 329 329 330 330 330 330 329 329 330 330 329 329 330 330 330 330 331 332 333 333 332 332 332 332 333 335 335 336 336 335 334 335 338 339 339 339 338 339 338 337 337 341 345 346 344 343 342 343 343 344 345 347 347 347 347 348 349 350 350 349 349 349 349 349 349 348 347 347 345 345 344 342 341 340 341 340 340 339 339 337 335 334
327 328 330 330 330 330 330 330 330 330 330 329 330 330 330 329 329 330 331 331 331 332 332 333 333 333 333 332 332 332 334 336 336 337 337 336 337 337 337 337 339 339 339 339 339 339 339 340 342 343 343 343 344 344 343 344 345 345 346 346 346 347 349 349 349 348 348 348 347 348 348 347 346 346 345 344 343 341 339 339 340 340 340 339 338 336 335
327 328 330 331 331 331 331 330 330 329 329 329 330 330 330 330 331 332 332 332 332 332 332 332 333 333 334 333 333 333 333 335 336 336 336 337 337 337 336 336 338 338 339 339 339 340 339 339 340 342 343 343 344 344 343 343 343 344 345 345 345 346 347 348 348 347 347 347 346 347 347 347 346 345 345 344 343 342 339 339 339 340 340 340 339 337 336
326 328 330 330 331 331 331 331 330 330 329 330 330 330 330 331 332 332 332 332 332 332 332 332 332 332 332 333 333 334 333 334 335 335 336 337 337 337 337 336 337 339 339 339 338 339 339 339 339 341 343 343 343 343 343 344 344 343 344 344 344 345 346 347 347 347 347 347 346 346 346 346 346 346 345 344 343 341 340 338 338 339 340 340 340 338 336
326 327 328 329 331 331 331 331 332 333 331 331 330 330 331 331 331 331 331 331 331 332 332 332 332 332 332 332 334 335 334 334 334 335 335 336 337 337 336 337 338 339 340 339 338 339 340 340 340 340 341 341 341 342 343 343 343 343 342 343 344 343 344 346 347 347 347 346 346 346 345 345 346 345 345 345 343 341 340 338 337 338 339 339 340 339 336
325 326 327 329 331 332 331 331 332 334 333 332 331 332 332 332 331 331 332 332 332 332 333 333 332 332 331 331 332 333 334 334 334 335 335 335 336 336 337 337 338 338 338 337 337 337 338 340 339 340 340 341 341 341 341 342 342 342 342 343 343 343 344 344 346 346 346 345 346 345 345 345 345 345 345 345 344 342 340 338 337 337 338 337 338 339 336
325 326 327 328 330 331 332 331 331 332 332 332 333 333 332 331 331 331 332 333 333 332 333 333 332 332 332 332 331 332 332 332 334 335 336 336 336 336 337 338 338 338 337 337 336 335 336 337 337 338 339 340 341 341 341 340 340 340 340 341 342 343 343 343 344 345 346 345 345 344 344 344 344 345 345 344 343 342 340 339 337 337 337 336 337 338 337
326 326 326 327 328 328 331 332 332 331 331 331 332 333 333 332 331 331 332 332 332 332 332 332 331 332 332 332 332 331 331 331 333 335 336 337 337 337 337 338 338 337 337 336 335 334 334 336 337 337 339 340 340 340 339 338 338 339 339 339 340 341 342 343 343 344 344 345 344 344 344 344 344 345 345 344 343 342 340 339 337 337 336 335 335 338 338
327 326 326 327 327 327 329 332 333 332 330 329 329 331 332 332 331 331 332 332 332 332 332 331 331 331 333 333 333 333 332 333 333 334 335 337 337 338 338 338 337 336 336 336 335 334 335 336 337 337 338 339 339 338 338 338 338 338 339 339 339 339 341 342 343 343 343 343 343 343 344 344 344 345 344 344 343 342 341 339 338 337 336 334 334 336 338
326 326 325 326 328 328 330 333 333 331 330 329 329 330 331 332 331 331 331 332 332 332 332 332 332 332 333 333 333 333 332 332 333 334 336 336 336 337 337 337 334 333 334 335 335 336 337 338 338 337 338 338 338 338 338 338 338 338 339 339 339 340 340 340 341 342 343 343 342 343 343 343 344 344 344 344 343 342 340 339 338 337 335 334 332 334 337
326 326 326 327 328 329 330 332 332 330 329 329 330 330 331 331 331 332 333 333 332 332 332 332 332 332 332 332 333 333 333 333 334 334 336 336 335 336 337 336 333 333 334 336 336 336 336 336 337 338 338 338 338 338 339 339 339 339 339 339 340 340 340 340 341 341 342 343 343 343 342 342 343 344 344 344 343 341 339 339 338 336 335 334 332 331 334
326 326 326 327 329 330 330 331 330 330 330 332 331 330 329 329 330 332 334 334 332 332 332 331 332 332 331 331 332 332 333 334 333 333 334 336 336 336 336 336 335 335 336 337 337 337 336 335 337 338 339 337 337 337 338 339 339 339 339 339 340 340 341 341 341 341 341 342 343 342 341 341 342 342 343 343 342 339 338 337 337 335 334 333 332 331 332
326 326 327 327 329 330 330 330 330 331 331 330 330 329 329 328 328 331 334 333 332 332 332 331 331 331 330 330 330 331 331 331 331 331 333 335 336 335 335 335 335 336 336 336 337 337 337 336 337 337 337 336 336 336 336 338 339 339 339 339 340 340 340 340 341 341 341 341 341 341 341 341 341 342 343 342 340 338 337 337 336 334 332 332 332 331 331
326 327 326 327 328 330 329 328 329 331 330 329 328 330 331 329 328 331 334 334 332 332 332 331 329 329 329 329 329 329 329 330 330 332 333 333 333 333 334 334 334 335 335 335 336 336 336 336 336 335 335 335 334 335 335 337 338 339 339 339 339 340 340 340 341 341 341 342 342 342 341 341 342 342 342 341 339 338 337 337 335 332 332 332 333 332 332
326 327 326 326 328 331 330 328 328 330 331 330 330 332 333 332 331 332 333 333 333 333 331 329 328 329 329 329 328 329 329 329 330 331 332 332 332 332 333 334 335 335 335 335 336 336 336 335 334 335 334 334 334 336 336 337 338 338 338 338 338 338 339 339 340 341 342 341 342 341 342 341 342 342 341 340 339 337 336 335 334 333 333 333 333 333 334
326 327 327 327 329 331 331 330 330 332 332 332 332 332 332 332 333 333 333 333 333 332 331 329 329 330 330 328 328 329 330 331 331 331 331 332 333 333 334 334 334 334 335 335 335 335 334 333 333 333 334 334 335 336 337 337 337 337 337 337 336 336 337 338 339 339 340 340 340 340 341 341 341 341 339 338 337 337 335 334 334 333 333 334 334 334 334
326 327 327 327 329 332 333 334 333 333 332 332 333 333 332 332 333 334 334 333 333 332 330 329 329 330 330 330 330 330 331 332 332 331 332 333 333 333 333 334 334 334 334 335 334 334 333 333 333 333 333 334 333 334 334 336 335 335 335 335 335 336 336 337 337 337 337 338 339 340 340 339 339 338 338 338 337 336 334 333 334 335 335 335 335 334 334
326 326 326 327 329 332 335 334 333 332 333 334 334 333 333 333 333 334 334 334 333 332 331 330 329 329 329 329 330 331 331 331 331 332 332 333 333 333 332 332 332 332 333 333 334 333 332 332 332 333 333 333 332 332 333 333 334 334 334 334 334 334 335 335 336 336 336 337 337 338 338 337 337 337 337 338 337 336 335 335 335 335 335 335 334 333 333
327 327 327 327 330 332 334 333 332 332 334 335 335 333 333 333 333 333 333 332 331 331 330 329 329 329 329 329 329 330 330 330 330 331 332 332 332 332 332 332 331 331 331 331 332 332 332 331 331 332 332 331 331 330 330 330 331 331 331 332 332 333 333 334 334 334 335 335 335 336 336 337 337 336 336 336 335 334 334 334 334 333 333 333 333 332 332
327 327 327 328 331 333 334 334 333 334 334 335 334 334 334 334 333 333 331 330 330 331 331 329 329 329 330 330 329 330 330 330 331 331 331 331 331 331 332 331 331 330 330 329 329 330 329 330 330 331 331 331 330 330 330 330 330 330 330 330 330 330 331 331 331 331 331 331 332 332 332 333 333 333 333 333 333 332 332 332 332 332 332 331 331 331 331
326 326 327 329 332 332 332 332 332 332 332 333 334 334 334 334 334 333 331 330 330 331 331 330 330 330 329 330 330 331 330 331 331 331 331 331 331 330 330 329 329 329 329 328 328 327 327 327 328 329 329 330 330 329 329 330 330 330 330 329 329 329 329 329 329 329 329 330 330 330 330 330 331 331 331 331 331 331 331 331 331 331 331 331 331 330 330
Wind_Speed
16 17 18 18 18 17 18 18 18 18 18 17 16 15 14 10 10 9 4 1 3 7 9 8 9 9 9 6 6 8 6 4 2 5 5 9 5 6 3 4 5 9 10 9 15 18 20 23 22 23 20 13 13 16 17 18 17 15 16 18 16 15 14 15 16 16 15 15 14 13 10 10 11 12 11 11 10 10 9 9 11 11 9 7 7 8 8
16 17 17 18 18 17 18 19 19 19 19 18 17 17 18 17 15 15 13 8 2 9 8 8 10 10 9 6 1 2 3 6 2 6 5 6 5 9 8 9 8 9 11 12 16 16 18 20 20 18 13 11 14 17 17 18 16 13 15 18 17 16 15 15 15 15 15 14 13 11 10 10 9 8 8 8 8 8 6 5 8 9 8 7 6 8 9
13 16 16 16 17 17 18 18 18 19 18 18 18 17 16 16 17 15 11 5 5 9 10 10 11 9 8 8 5 4 4 5 4 2 5 6 8 7 6 8 9 10 12 14 15 15 17 18 17 15 13 13 15 16 16 15 14 14 16 17 17 17 16 15 14 14 14 12 10 9 9 8 8 8 7 6 6 6 6 7 9 9 7 7 6 6 9
10 12 14 16 15 16 17 17 17 18 17 15 14 10 7 11 11 8 6 5 5 8 10 10 11 11 11 12 10 8 7 6 8 5 5 5 6 5 6 6 7 10 11 14 13 15 17 16 15 15 16 16 16 17 16 13 13 16 16 15 16 16 15 14 13 13 13 11 9 9 8 7 8 9 7 6 7 8 8 9 10 8 6 7 6 5 6
9 12 14 16 14 12 12 9 9 11 9 8 9 8 12 15 13 9 6 4 6 10 11 11 12 13 13 13 10 7 6 7 8 6 4 5 4 3 4 5 6 8 9 13 14 16 17 16 17 18 19 18 19 21 19 16 15 16 15 14 14 13 13 14 13 11 12 11 10 11 10 8 8 10 10 8 9 9 8 8 7 7 7 7 7 7 6
9 12 14 13 10 9 6 6 12 13 12 12 11 10 12 13 11 9 7 8 10 12 12 12 12 10 9 11 10 6 4 6 7 6 3 2 3 5 4 4 6 6 8 11 14 15 15 16 17 17 19 20 20 20 19 18 18 17 15 14 14 13 13 13 12 12 12 11 11 12 11 9 9 10 10 9 8 8 7 8 6 5 7 6 5 7 7
7 9 10 9 8 6 6 13 15 15 15 15 11 10 14 15 12 10 10 12 14 14 13 12 9 4 5 8 11 11 8 7 7 6 6 5 2 2 5 5 5 6 9 13 15 14 14 16 16 15 16 19 19 17 16 17 17 16 15 15 15 15 14 13 13 13 12 11 11 12 12 11 11 11 10 10 10 8 7 6 5 2 2 1 1 1 1
7 7 7 7 8 3 13 17 15 14 14 14 11 8 13 15 13 11 10 11 13 13 14 12 7 1 4 6 8 12 12 11 9 7 5 6 9 8 1 4 5 6 9 13 15 14 13 14 15 14 16 18 18 17 16 16 16 15 14 14 15 15 14 14 14 13 12 12 12 12 12 12 12 13 12 11 9 7 6 4 3 2 1 1 1 2 2
6 7 7 7 10 5 11 14 13 12 12 12 11 6 8 14 13 12 11 10 11 11 11 13 9 3 3 5 6 9 11 12 11 9 6 4 4 7 6 3 7 8 9 13 17 16 13 12 13 12 14 16 16 17 17 16 16 16 15 14 14 15 15 14 13 13 12 12 12 12 12 12 11 11 10 8 7 6 5 4 4 4 3 2 1 2 2
6 8 8 8 9 5 5 11 13 13 13 14 12 7 3 10 12 12 12 11 12 12 12 13 12 8 5 5 6 8 10 11 11 11 9 5 3 2 5 5 6 6 9 15 18 16 13 13 13 12 12 13 13 14 14 14 14 14 14 13 14 14 14 13 13 12 12 12 12 12 11 11 10 9 9 8 7 7 7 6 6 7 6 5 3 3 3
6 7 8 7 6 2 6 11 14 14 14 15 13 6 1 7 11 11 11 12 12 13 14 13 10 9 5 4 6 8 11 13 14 13 11 8 5 2 3 4 5 4 7 14 17 15 13 13 13 14 14 13 11 11 11 12 12 11 11 11 12 12 12 13 13 12 12 13 13 13 12 12 11 11 11 10 9 9 8 7 7 7 7 7 6 6 5
5 7 8 6 3 3 8 13 13 14 14 13 10 5 2 7 10 8 8 11 10 11 12 11 7 6 3 5 8 10 12 13 14 14 12 12 13 9 6 6 6 5 8 12 13 13 13 12 13 15 15 14 12 11 10 10 10 9 8 8 9 9 11 12 12 13 13 13 13 13 13 13 13 12 12 11 10 9 9 7 6 7 7 6 5 6 5
6 6 6 4 2 3 9 13 13 13 13 8 5 4 3 7 10 8 8 8 8 8 8 7 4 1 2 9 12 13 12 12 13 14 14 14 14 14 12 8 5 2 8 9 10 13 14 12 12 13 13 12 11 9 9 8 7 7 6 7 7 8 9 9 10 10 10 11 12 12 12 12 11 10 10 9 8 8 8 5 4 6 6 4 4 4 4
5 4 4 4 2 2 8 11 10 10 8 4 2 3 5 7 8 9 9 8 7 7 7 5 4 5 6 10 14 15 12 10 10 13 15 14 13 16 16 11 6 3 5 5 8 13 13 12 12 11 11 12 12 10 9 8 7 7 7 7 7 7 7 7 7 7 7 7 9 9 8 8 9 7 7 7 6 6 6 5 4 6 6 5 5 4 4
5 5 4 3 2 3 8 10 7 6 4 2 1 3 6 6 6 6 6 6 7 8 8 6 7 8 9 10 13 15 14 11 9 10 13 14 14 18 20 17 13 8 2 1 5 11 12 12 12 11 11 11 10 8 7 7 8 8 7 7 7 7 6 6 6 6 6 6 6 6 4 5 6 7 6 5 5 5 6 6 6 6 5 6 6 5 5
4 5 5 3 2 4 8 8 4 2 3 3 3 4 6 5 4 4 5 6 6 7 8 8 8 8 8 8 10 12 13 12 9 7 9 11 13 16 19 19 17 13 10 7 5 5 6 6 7 11 15 16 11 7 7 8 9 10 9 8 7 7 6 6 6 6 6 7 6 5 5 5 6 6 7 6 6 7 7 7 7 6 6 6 7 6 6
4 5 6 5 3 5 7 6 4 5 6 6 5 6 7 5 3 3 4 6 8 8 8 9 9 8 7 7 8 9 11 11 9 7 7 7 9 11 14 16 17 15 14 13 13 13 14 15 13 11 16 21 18 13 12 13 13 13 12 9 8 7 7 6 7 7 7 7 6 6 7 7 6 6 8 8 9 9 9 8 8 8 8 8 8 8 7
5 5 5 6 6 7 8 7 6 6 7 8 8 7 6 6 6 5 5 5 8 9 9 9 8 8 8 8 8 7 8 10 8 8 8 6 5 6 9 12 14 13 12 13 16 18 17 17 18 16 12 17 20 16 15 15 16 17 15 12 9 8 7 7 8 8 9 9 8 8 9 8 8 8 9 9 10 10 10 9 9 9 9 9 9 9 8
6 4 4 8 10 11 10 9 7 6 7 8 8 7 7 7 8 9 8 7 8 9 10 9 8 9 10 9 8 7 7 8 8 8 9 7 4 4 6 9 12 12 12 13 15 16 15 14 14 14 10 11 15 15 13 13 14 15 15 15 12 9 8 9 9 9 10 10 10 10 9 9 9 10 10 10 10 10 10 10 11 10 9 9 8 8 9
6 5 7 11 13 12 10 9 7 6 8 9 9 9 9 9 10 10 9 8 8 9 10 9 8 9 10 8 8 7 6 7 7 6 8 8 5 2 3 5 8 10 11 11 12 13 12 10 11 11 10 8 8 10 11 11 11 11 12 14 14 12 10 9 9 9 9 9 9 9 9 9 9 9 10 10 10 11 11 10 10 10 9 9 9 8 9
7 5 8 12 12 9 8 10 10 10 10 11 12 11 11 11 12 12 11 9 8 9 12 12 9 9 9 8 8 7 6 6 6 5 6 8 7 5 3 2 3 5 7 9 11 11 9 8 10 12 11 8 5 4 7 8 9 11 12 13 13 13 12 10 9 9 9 9 9 9 9 9 8 7 9 10 9 9 11 9 8 9 9 8 9 8 7
6 6 8 9 8 6 8 11 14 14 13 12 13 13 13 12 11 12 12 11 10 10 11 13 12 9 9 8 9 9 6 5 5 5 5 6 7 6 4 3 2 1 2 5 7 8 7 7 9 11 11 9 7 2 4 7 10 12 14 14 12 12 12 11 9 7 8 9 9 10 10 9 7 6 9 9 7 6 10 10 9 8 7 6 6 4 4
5 8 9 7 5 7 10 12 14 14 13 12 12 12 13 13 11 11 11 12 12 11 10 12 13 12 10 10 10 9 8 7 6 7 6 6 7 6 4 4 4 4 2 0 2 4 5 5 7 8 8 7 8 5 3 9 12 13 14 16 13 10 12 13 11 7 7 9 10 10 10 10 7 7 8 9 7 6 9 11 10 10 10 8 6 5 4
7 8 10 8 7 9 12 14 14 12 11 12 13 12 12 11 11 11 10 9 11 12 11 12 14 14 13 13 12 10 9 9 9 8 7 7 7 7 5 4 5 6 5 4 3 2 2 1 4 5 2 2 5 6 7 12 12 10 12 14 13 10 11 14 13 12 11 9 9 11 10 9 8 8 8 9 9 10 11 11 11 11 12 12 10 8 6
9 9 9 10 10 11 13 13 13 11 10 11 12 13 13 12 13 14 12 9 12 14 13 13 16 17 16 15 14 12 10 10 9 7 7 8 8 8 7 6 5 5 5 6 6 4 4 4 3 2 3 3 1 4 8 12 10 8 9 12 13 11 11 13 14 15 15 10 7 11 13 10 8 9 9 10 11 12 14 15 15 14 13 13 13 11 9
8 9 10 11 12 11 10 10 11 12 14 14 13 13 15 17 17 17 16 15 16 17 16 14 16 18 18 16 15 14 13 12 11 8 7 8 8 8 8 7 5 4 5 6 7 7 7 9 10 8 7 7 5 3 6 10 10 7 8 11 13 13 13 14 13 15 17 14 10 12 14 12 10 9 10 11 12 12 12 13 15 16 15 15 14 12 10
8 9 10 12 12 12 11 12 13 14 17 18 15 14 16 18 18 18 18 19 19 18 17 17 18 18 18 17 17 16 15 14 12 10 8 8 8 8 8 7 5 4 6 6 6 7 9 10 12 13 14 13 11 8 6 7 10 9 6 8 12 14 15 16 17 16 17 17 15 13 14 14 12 11 11 13 13 13 12 11 11 13 14 15 16 15 13
8 8 9 10 11 12 13 15 16 16 16 18 17 16 16 17 16 16 15 16 18 17 15 16 17 16 15 15 15 15 14 13 11 10 9 8 7 7 8 8 7 6 6 7 7 8 9 11 11 13 14 13 11 10 10 9 9 11 9 6 11 14 16 17 20 21 19 18 17 16 14 14 14 13 13 14 14 13 12 11 11 11 10 11 15 16 15
8 9 9 10 12 13 14 15 16 14 15 16 17 16 16 14 13 13 13 13 14 13 13 14 15 13 13 14 13 12 11 11 10 10 11 9 8 8 8 9 10 9 8 8 8 8 10 11 11 12 14 12 9 9 11 12 11 10 11 10 11 14 16 16 19 23 22 19 17 16 15 16 17 15 14 16 16 14 13 12 12 12 11 10 12 15 16
10 10 11 11 13 15 15 15 14 14 14 14 14 14 14 14 12 12 12 11 11 11 12 14 14 13 14 15 13 12 12 12 11 11 13 12 9 8 8 9 9 10 10 10 10 10 11 11 11 14 16 15 11 9 10 12 14 13 11 12 13 15 16 16 17 20 22 20 17 14 14 16 18 17 16 16 16 16 15 14 14 14 13 12 13 15 16
12 13 13 13 13 15 15 13 13 13 14 14 14 14 14 14 13 12 12 11 9 9 11 12 13 13 14 14 14 12 12 13 13 13 14 14 11 10 10 10 10 10 11 11 10 11 12 13 13 14 16 15 12 10 10 12 14 16 15 14 15 16 18 19 17 17 19 20 18 15 13 14 16 17 16 16 17 17 16 15 15 15 14 14 14 15 15
14 14 14 13 13 14 14 12 12 13 13 13 14 13 12 13 13 12 11 11 10 10 10 10 11 13 14 14 14 13 12 13 14 14 14 15 13 12 13 15 16 16 15 14 12 11 11 13 14 15 15 14 13 12 12 13 14 15 14 14 15 17 20 21 20 18 17 18 18 17 16 16 16 16 17 17 18 17 17 17 16 16 16 15 15 16 17
13 12 12 12 12 13 13 11 11 14 14 13 12 10 10 11 11 9 9 11 12 11 10 10 11 13 15 14 14 14 14 13 13 13 14 15 14 15 15 16 16 17 18 16 14 11 11 12 14 14 14 14 13 13 13 14 14 14 14 15 17 18 19 21 21 19 18 18 17 17 17 18 18 17 18 19 20 19 18 18 17 17 17 16 16 18 19
11 10 10 10 10 11 11 10 10 12 13 12 12 10 10 11 10 7 9 12 11 10 11 12 12 13 14 14 14 14 13 11 9 10 13 14 14 15 16 16 16 17 18 17 15 13 13 14 14 14 14 14 14 13 13 13 13 14 14 16 17 16 17 20 21 19 19 20 20 18 17 19 20 20 20 21 21 20 19 19 17 17 18 17 17 19 21
12 11 10 10 10 11 11 9 10 12 12 12 12 11 11 12 12 11 12 13 11 11 12 13 13 14 15 14 13 12 12 11 10 11 12 12 13 14 15 15 15 14 15 16 16 15 15 15 15 14 14 14 14 14 13 12 12 13 13 14 16 15 14 17 20 19 18 19 20 20 19 19 20 21 22 23 22 20 20 19 19 18 18 18 17 19 23
13 11 10 9 11 13 14 13 12 11 11 11 12 12 13 15 15 15 15 14 13 12 12 10 10 12 14 14 13 11 10 10 11 11 10 9 10 11 12 13 11 9 10 14 16 16 15 15 16 16 16 15 15 15 15 14 13 13 13 13 15 16 16 16 18 19 18 17 17 20 21 20 20 21 23 23 21 19 19 20 20 19 19 19 17 20 25
14 13 12 10 11 13 14 15 15 13 12 12 12 11 12 15 17 16 15 15 14 13 12 10 9 10 12 13 14 14 13 12 12 10 9 8 8 8 9 8 7 5 6 12 16 16 15 16 17 17 17 16 15 15 15 14 13 13 12 12 12 14 15 16 17 18 19 18 17 17 19 20 20 21 22 23 22 20 19 20 21 20 20 20 17 19 27
15 15 15 14 13 12 12 15 17 17 15 14 13 11 12 14 16 16 16 15 13 12 12 11 10 10 10 11 11 13 15 15 14 11 9 8 8 7 7 7 6 6 8 10 14 16 16 15 15 15 15 15 15 15 15 15 15 14 13 13 13 13 14 16 17 18 19 19 18 17 16 17 19 21 22 23 23 21 20 20 20 19 20 20 17 18 27
14 15 16 16 16 15 14 14 15 16 16 16 16 14 14 15 16 16 16 15 12 9 9 10 11 10 9 9 9 10 13 15 14 12 10 8 8 8 8 6 5 6 8 10 12 14 15 14 13 12 12 12 13 14 15 15 15 14 13 13 14 14 14 16 17 18 18 19 19 18 17 17 18 21 22 23 23 22 20 20 20 19 19 20 18 17 23
12 14 16 17 18 18 16 14 13 14 16 17 18 17 17 17 16 15 15 14 12 9 8 9 10 10 9 8 9 10 13 13 12 11 9 8 7 7 6 4 4 5 7 9 10 10 11 12 12 13 13 12 12 13 14 14 14 15 14 14 15 16 16 16 16 16 17 18 18 18 18 18 18 19 21 21 21 21 21 21 21 20 19 20 20 18 20
13 16 18 18 17 18 17 15 13 14 16 17 17 18 18 18 16 14 14 13 13 12 10 9 9 10 11 10 9 12 14 13 11 9 8 7 7 6 4 4 6 7 7 7 7 7 8 9 10 12 13 12 12 14 15 15 15 15 15 15 16 16 16 16 16 16 16 17 17 17 18 18 17 18 18 19 20 20 20 21 23 22 20 20 20 19 19
15 17 18 17 17 19 19 16 14 15 18 19 17 17 17 17 16 14 12 12 12 11 10 9 9 11 12 11 11 12 12 11 10 9 8 7 8 7 6 5 6 6 4 3 2 3 6 8 9 9 10 11 12 13 14 15 15 16 16 16 17 17 17 17 16 16 16 16 17 17 17 17 17 16 16 17 19 18 17 18 21 21 20 20 20 19 17
17 18 16 15 17 19 19 16 13 13 16 18 19 18 18 19 17 14 10 10 11 10 10 10 10 10 12 13 12 10 9 9 10 10 9 8 8 8 7 6 5 5 5 4 4 4 6 7 7 7 8 10 11 13 14 14 15 16 17 18 18 18 18 18 17 16 16 16 17 17 16 15 16 15 14 15 16 17 17 19 20 17 16 16 17 16 15
18 17 16 17 17 17 17 15 12 11 13 18 21 20 18 18 18 14 10 11 12 11 11 11 11 10 10 11 10 8 8 9 10 9 8 5 3 3 3 4 3 3 3 4 5 5 5 5 5 7 10 13 14 14 15 16 16 17 19 20 19 19 18 18 17 17 16 16 16 16 15 14 15 14 13 14 16 17 18 20 20 19 15 13 13 13 13
17 16 17 18 15 12 11 12 12 11 13 17 18 14 11 12 14 13 11 11 12 12 11 11 11 10 9 8 8 8 8 9 9 8 6 3 2 3 5 6 4 3 4 4 4 3 3 5 7 9 12 14 16 16 16 16 17 18 19 19 18 18 17 17 15 15 15 15 14 14 14 14 13 11 9 11 14 16 16 16 19 21 19 16 15 14 12
16 17 18 17 13 10 11 14 16 15 15 14 11 8 9 11 12 12 12 11 11 11 12 12 13 12 10 8 8 9 8 7 6 8 8 5 2 2 4 5 4 4 5 5 5 3 4 7 10 11 11 12 14 14 14 14 15 17 18 19 19 19 19 17 15 13 13 13 12 12 12 12 11 9 9 10 12 15 15 16 19 21 20 18 16 13 10
16 16 17 16 14 12 14 17 17 15 13 10 8 9 13 14 12 10 11 11 10 12 13 14 14 13 10 7 6 7 6 3 3 7 10 10 7 6 7 7 7 7 7 7 8 7 8 9 11 10 10 11 11 10 9 10 12 14 14 15 16 17 17 17 14 11 10 11 13 14 13 11 9 8 8 9 11 14 17 19 19 18 17 16 15 12 9
16 16 16 16 14 11 12 14 13 11 10 10 9 10 13 14 12 10 11 11 10 11 14 16 15 12 9 8 8 8 7 6 5 6 9 10 10 10 11 10 9 9 9 9 10 12 13 13 12 11 10 10 10 9 8 7 6 7 9 11 13 14 14 14 13 11 9 10 12 13 13 13 12 10 9 8 10 12 16 18 17 15 14 13 13 11 9
16 16 16 16 13 10 9 10 9 9 10 11 10 10 12 14 12 11 11 12 12 11 12 15 14 9 6 7 9 10 10 10 9 7 8 10 11 12 13 13 13 13 12 11 12 16 19 18 15 13 12 13 12 11 10 10 10 8 4 2 3 5 6 7 7 7 6 6 7 7 8 8 10 10 10 10 13 14 16 17 17 16 15 13 11 9 7
15 15 15 13 10 8 7 7 7 8 9 10 10 11 11 11 10 9 10 13 14 12 12 15 15 10 5 8 11 12 11 12 11 9 11 14 14 14 15 17 17 17 17 15 15 17 20 21 20 17 16 17 18 17 16 16 17 16 15 14 12 11 10 9 8 6 6 6 6 6 7 8 9 10 11 12 15 17 17 17 17 15 13 12 10 8 8
14 14 14 10 5 4 5 6 6 7 8 9 10 10 9 8 8 8 9 12 13 11 10 13 15 12 9 11 13 13 12 12 11 11 13 15 16 15 17 18 18 18 19 19 18 18 19 20 21 21 20 19 20 20 20 21 20 20 19 19 19 18 17 16 16 16 16 15 15 16 17 18 18 18 17 18 19 19 18 17 16 14 13 13 12 11 10
14 14 11 6 2 3 7 8 8 8 8 8 9 9 9 8 8 7 7 7 9 10 9 9 9 10 11 12 12 12 12 13 14 14 15 16 15 16 16 16 16 16 16 17 18 19 19 19 18 19 20 21 23 23 22 22 22 22 21 21 21 21 20 19 19 19 19 18 19 20 20 20 20 19 19 20 19 18 17 17 16 15 14 14 13 12 11
Wind_Direction
280 282 283 283 282 282 282 281 280 277 275 272 269 273 275 269 267 273 268 271 347 26 37 34 33 42 63 52 326 323 332 321 69 73 59 70 50 282 232 156 176 162 144 116 105 120 155 177 187 194 192 176 164 176 182 176 169 164 167 170 168 173 176 170 173 182 188 195 200 199 201 209 212 207 202 206 212 213 223 250 261 257 248 230 213 211 216
289 288 286 285 282 280 278 277 277 276 276 275 271 271 273 270 267 271 270 258 82 53 24 12 23 31 63 84 269 302 330 313 26 85 84 108 187 227 196 172 181 164 143 124 122 145 173 186 191 192 182 160 167 180 178 172 169 160 162 169 168 172 176 174 175 177 178 187 197 204 211 208 203 202 201 203 202 195 195 220 246 247 238 229 220 215 219
289 289 287 283 278 276 276 274 272 271 273 274 273 272 277 279 272 271 284 310 49 38 5 11 24 17 36 52 35 48 45 328 320 126 144 173 208 215 186 175 168 155 144 128 130 157 180 189 187 174 163 162 170 178 173 169 171 169 170 170 167 171 176 174 175 175 175 183 194 202 209 198 184 187 192 187 183 178 172 189 217 229 227 227 222 220 229
285 289 289 286 285 285 280 274 270 266 261 262 270 285 335 344 326 315 334 6 25 8 359 14 22 14 27 43 32 15 17 350 309 268 191 187 208 194 181 180 156 148 142 125 135 167 180 187 185 167 157 160 171 178 172 164 170 172 171 169 167 171 174 173 174 176 176 182 190 192 194 189 177 175 173 168 174 180 177 188 204 209 213 223 213 203 222
290 294 296 300 304 295 282 291 312 307 297 301 318 0 30 26 21 24 25 17 3 360 2 7 15 22 29 38 38 10 343 330 309 284 214 189 190 161 167 174 152 146 138 126 140 163 175 186 189 173 162 164 176 182 175 166 167 170 170 172 171 170 172 173 174 176 176 179 184 185 186 186 179 172 171 173 174 176 180 186 185 183 195 207 201 197 207
283 293 299 299 293 280 285 6 14 359 351 349 357 26 36 30 36 42 27 16 11 8 7 9 16 29 27 25 35 30 335 307 314 318 306 242 189 165 161 165 154 143 128 121 128 146 169 186 188 177 170 173 179 181 176 167 164 167 172 176 173 170 172 173 172 171 172 171 171 175 181 183 175 168 168 166 156 155 168 174 163 171 194 195 188 201 200
282 292 295 283 267 284 15 35 25 13 6 359 4 39 45 34 33 32 17 12 11 5 3 12 27 33 360 8 23 19 353 322 319 325 326 332 326 170 159 160 159 139 128 125 128 143 166 178 180 175 167 166 169 171 170 167 164 167 171 170 171 171 169 168 169 166 164 161 157 159 165 167 164 162 159 151 144 142 151 158 155 174 224 253 34 267 175
283 276 271 269 268 337 45 40 21 15 15 2 356 33 52 39 24 16 14 12 10 2 354 3 30 50 310 340 17 13 354 335 329 321 318 348 359 350 335 160 143 122 126 128 132 144 160 169 174 173 162 158 160 164 168 169 167 168 167 165 167 168 165 165 167 164 159 157 154 152 155 158 158 157 154 147 142 141 140 143 155 178 258 316 26 35 43
288 280 276 286 283 311 38 30 7 4 8 358 344 353 48 43 25 11 11 9 6 3 355 353 359 5 330 330 357 7 351 342 343 341 345 30 26 333 331 72 106 111 122 124 127 138 157 170 174 169 160 156 157 161 166 166 164 164 163 163 163 163 164 166 165 163 161 160 161 161 163 166 163 156 153 149 143 143 144 144 164 181 190 191 142 87 91
294 288 281 286 282 288 13 9 1 1 354 347 338 319 18 37 23 12 11 11 6 3 359 355 1 31 39 321 318 350 350 353 2 358 360 46 131 266 337 34 88 118 131 132 134 143 161 174 172 163 161 158 153 157 161 159 158 161 161 163 165 166 166 165 165 167 168 167 168 169 171 173 169 161 158 155 150 149 154 164 176 177 174 172 160 141 154
295 289 280 283 283 325 12 356 357 357 346 340 334 306 302 15 7 4 3 6 10 3 358 358 14 52 69 274 295 347 356 4 14 5 358 11 24 13 26 51 61 84 126 132 135 144 160 171 170 164 163 160 152 153 158 157 160 167 168 166 167 168 167 168 172 174 174 175 174 173 175 175 171 169 167 160 152 151 161 181 184 175 172 172 163 159 166
270 267 269 284 309 33 5 351 354 351 340 335 324 294 295 348 347 354 354 356 3 360 356 360 18 64 86 278 311 349 360 12 18 10 8 6 355 359 29 31 17 46 110 123 132 145 156 166 170 168 165 161 156 156 159 162 168 173 175 170 170 173 172 172 179 181 181 184 181 176 179 179 175 173 167 158 152 157 173 189 179 167 171 171 151 141 141
279 275 277 296 338 356 341 347 360 349 326 308 297 306 325 323 326 342 354 351 350 346 348 355 4 42 278 294 317 339 357 15 18 15 22 17 355 357 17 12 346 77 119 133 146 147 149 159 166 168 166 158 154 155 157 165 175 175 176 177 176 179 179 179 186 190 189 187 184 184 187 180 169 161 155 152 153 163 181 193 164 153 165 173 157 140 131
301 305 304 310 303 300 320 337 2 0 332 300 282 307 299 298 317 341 349 343 337 334 335 333 321 316 309 311 322 331 343 6 16 13 18 20 8 7 18 19 7 68 122 152 146 135 143 159 161 165 169 157 148 153 160 167 173 171 178 187 183 182 188 192 198 202 201 193 188 191 187 168 155 149 149 154 158 167 183 195 183 172 175 179 171 152 146
310 298 305 309 275 300 324 333 357 21 4 339 307 280 286 305 328 337 332 326 321 320 322 320 313 315 321 323 324 324 329 344 6 10 7 9 11 13 18 20 17 22 41 183 142 136 151 166 166 166 159 138 131 143 156 164 169 168 175 185 188 190 197 204 209 206 207 210 204 194 178 164 168 170 164 164 173 180 190 199 198 193 188 184 178 166 163
319 300 315 322 256 298 332 340 345 339 298 291 305 296 295 311 330 326 317 314 310 308 311 311 304 306 315 319 316 316 321 332 352 9 7 9 12 11 12 17 23 31 31 21 43 101 119 133 156 159 141 126 122 128 141 156 166 168 172 177 185 195 199 201 210 210 208 213 213 202 191 190 192 179 169 179 195 195 200 207 200 191 192 194 191 184 175
307 297 306 319 312 321 336 337 329 324 313 308 315 309 304 314 329 317 303 302 306 310 309 305 303 306 312 308 303 305 312 323 341 354 353 8 23 16 7 10 22 38 45 40 41 46 46 50 61 91 130 148 159 158 154 158 158 158 166 172 179 193 197 196 203 206 205 207 208 203 195 196 200 187 180 195 207 201 200 204 197 190 194 199 195 190 183
315 303 302 329 340 338 336 332 335 339 323 312 311 305 303 316 320 311 302 300 306 310 308 305 305 308 312 309 306 307 308 311 324 334 331 346 26 28 17 12 15 30 49 53 52 52 48 52 61 72 114 162 173 166 159 161 157 155 159 162 169 186 195 198 204 207 206 206 207 206 201 202 211 211 206 211 212 206 203 200 199 202 200 197 199 196 187
312 312 347 359 343 331 330 328 332 337 320 313 316 306 296 298 303 307 312 309 302 300 298 300 303 306 312 318 321 325 320 313 315 322 323 332 3 32 33 23 12 19 37 47 53 58 57 60 72 80 99 151 170 168 164 161 157 156 156 156 163 180 193 200 208 212 214 213 212 213 212 214 221 222 223 224 219 215 217 211 204 209 205 194 199 199 185
310 320 359 355 338 333 338 333 331 338 329 323 320 308 300 298 294 292 295 298 299 295 289 289 294 300 306 314 320 323 323 317 316 319 320 325 334 353 18 20 13 14 24 37 51 62 64 68 82 93 102 122 151 166 170 161 155 162 165 162 165 174 185 199 208 215 223 224 221 220 218 221 228 225 220 227 226 220 225 224 212 214 213 200 200 205 192
314 337 356 346 337 339 341 330 324 327 324 318 314 307 302 300 296 294 292 288 286 288 291 292 293 295 300 306 311 310 307 309 317 325 328 324 319 305 301 328 7 11 15 31 47 57 62 69 79 90 99 97 99 153 181 177 169 171 173 174 176 174 178 193 204 208 222 233 231 232 228 221 223 215 208 223 234 221 219 225 218 214 217 205 201 212 203
322 337 343 343 336 319 315 319 321 323 321 314 312 311 305 301 298 297 295 289 280 278 287 294 293 291 292 297 303 303 301 307 317 319 318 312 306 302 299 290 272 285 14 33 44 49 49 49 54 64 75 77 70 83 196 191 187 184 179 181 189 185 177 185 195 202 222 231 226 231 238 229 212 192 199 217 230 210 206 216 219 217 218 203 192 193 166
300 313 325 338 329 300 304 311 315 318 317 309 306 308 308 308 308 302 297 295 289 279 275 282 287 289 289 290 292 295 299 305 308 304 300 300 301 301 298 288 271 250 232 142 51 44 37 39 46 46 46 57 63 65 159 178 185 195 191 187 195 195 182 183 188 188 209 229 222 219 237 244 222 193 203 222 227 213 209 217 226 232 237 232 217 203 167
299 308 320 327 318 304 303 305 306 310 313 310 307 305 305 306 307 302 297 293 288 284 281 280 281 283 285 285 283 283 290 295 295 294 296 297 299 298 287 274 266 254 239 220 187 137 77 66 83 72 29 8 61 88 154 175 183 201 204 198 205 210 197 196 198 188 191 216 220 203 212 235 223 200 209 230 237 236 232 230 233 239 241 240 238 233 215
310 316 322 319 310 303 303 307 308 306 305 305 305 304 301 296 291 291 290 279 273 276 279 278 276 276 276 277 277 277 280 282 282 289 297 293 288 287 280 270 258 246 238 230 217 197 201 234 231 167 188 243 360 115 161 176 185 208 219 216 221 230 224 219 213 198 192 204 208 192 196 212 212 201 211 227 237 242 243 243 246 251 248 242 239 238 233
312 321 324 316 307 304 309 312 310 307 307 305 299 296 297 294 289 288 286 281 275 273 273 274 277 276 275 275 278 279 280 281 281 278 275 278 280 278 280 285 275 234 215 222 231 226 225 241 252 242 220 226 245 222 177 171 173 192 224 233 235 242 249 250 240 215 200 202 206 195 194 201 208 213 222 230 235 237 236 239 246 251 252 246 239 235 234
324 331 330 321 314 315 318 315 309 307 307 303 298 295 296 294 291 288 284 281 278 274 272 274 276 276 276 274 273 271 269 270 273 266 260 269 279 278 281 290 286 243 213 212 224 230 234 242 249 252 252 250 248 243 222 184 164 167 203 245 250 250 254 262 262 242 216 208 209 203 193 193 203 219 233 240 239 232 222 222 232 239 244 246 240 233 231
331 331 328 321 313 309 308 307 306 304 303 301 300 298 295 293 292 290 287 285 281 276 271 270 271 273 276 275 274 273 269 266 267 268 267 266 261 260 268 275 272 252 225 216 219 226 236 244 247 253 262 263 250 238 237 223 187 165 165 209 249 251 250 257 263 257 240 221 212 209 203 198 201 213 232 242 243 233 218 214 221 221 224 235 237 233 229
330 326 322 316 308 304 305 307 308 308 305 303 303 302 299 297 295 293 292 296 296 292 287 282 280 280 280 277 274 274 273 271 268 271 274 268 249 240 248 257 262 259 242 229 227 229 236 246 252 255 259 261 253 245 245 243 229 200 174 180 215 237 242 247 255 258 253 239 223 219 220 211 204 209 224 237 242 237 223 212 213 213 206 204 213 219 219
324 321 319 316 314 315 317 318 317 316 311 306 305 305 302 300 296 293 293 298 301 299 296 294 291 286 281 278 276 274 275 279 277 272 271 266 248 235 241 249 255 258 249 235 229 229 233 241 251 257 259 258 255 253 252 250 249 240 212 191 199 217 228 233 239 246 248 242 234 231 226 212 204 206 216 228 236 238 231 218 210 206 199 190 194 203 207
321 320 320 319 320 321 322 322 319 318 319 319 315 310 305 299 294 292 293 293 292 295 300 301 296 288 280 278 281 283 283 281 277 272 269 263 248 234 234 237 240 247 249 242 233 228 229 231 237 249 258 258 249 245 246 246 246 241 225 208 207 216 222 223 225 230 232 231 229 228 223 212 206 207 214 225 232 233 232 226 215 206 198 191 191 198 201
322 324 325 325 327 326 325 324 319 316 320 323 318 312 309 305 300 298 299 298 294 294 298 300 297 295 291 286 283 283 279 273 268 264 263 261 253 240 233 231 233 239 245 248 243 235 229 229 232 243 254 255 245 239 238 238 239 238 231 223 220 223 223 222 221 222 223 223 224 222 218 214 212 210 216 227 232 230 230 229 220 211 204 196 194 198 200
326 329 330 329 329 327 324 322 319 316 317 317 313 308 306 307 308 306 300 297 297 295 292 290 291 295 298 295 286 278 274 271 267 262 258 256 254 248 242 237 236 238 241 245 246 243 240 239 241 245 250 251 247 242 238 234 232 233 234 232 230 228 225 222 220 218 215 217 221 223 218 217 217 217 223 230 232 230 231 232 225 217 210 203 199 199 200
331 335 328 317 312 315 318 316 313 315 316 313 310 308 306 306 308 300 287 288 293 295 293 292 290 289 290 291 285 278 273 270 266 263 260 258 255 252 249 245 242 241 242 243 243 243 246 247 249 249 248 248 250 251 247 242 237 235 236 239 238 234 225 216 212 210 207 210 217 221 221 221 221 221 226 231 229 225 228 231 229 223 216 208 202 199 199
335 332 319 302 295 301 307 303 302 311 317 314 311 311 309 306 302 297 293 295 296 295 294 295 292 286 283 281 279 278 276 275 275 274 272 272 271 269 264 258 252 251 252 249 243 241 245 249 251 251 249 248 251 252 251 248 243 240 240 241 241 241 231 213 205 205 208 209 213 217 220 224 223 221 226 233 230 222 221 227 230 228 221 213 205 198 197
334 330 325 315 305 303 303 299 296 299 306 311 314 316 314 311 308 304 300 300 298 296 297 299 298 294 291 286 281 278 274 273 276 277 275 276 283 287 282 271 261 262 273 270 258 248 247 250 252 251 249 249 252 254 254 252 249 247 249 248 243 241 237 219 205 204 209 212 213 215 220 226 228 224 227 235 234 224 218 223 229 229 225 220 211 197 193
333 333 332 324 308 301 304 306 302 297 299 307 311 311 307 309 312 309 302 298 297 296 295 292 290 290 290 288 286 283 277 271 269 267 265 266 275 285 286 276 254 236 257 271 267 260 254 253 253 252 250 248 250 253 253 252 251 253 261 264 254 243 237 225 210 204 206 210 213 216 218 225 231 231 230 234 235 228 222 223 227 228 225 225 219 197 188
334 332 329 324 315 308 309 311 310 309 309 308 305 302 303 308 313 311 303 295 294 298 299 296 293 285 279 280 286 288 285 280 272 263 258 258 259 262 266 266 250 230 237 260 275 279 275 266 259 255 252 249 251 254 253 251 249 249 253 259 259 252 246 237 224 213 208 210 214 216 217 222 230 233 232 231 231 228 225 225 227 226 225 226 221 195 185
331 326 327 329 326 323 321 317 315 320 326 322 316 316 318 316 316 315 307 299 300 308 307 301 298 290 278 276 280 279 277 276 274 270 264 258 251 249 248 249 254 261 269 281 291 296 295 288 277 266 260 256 255 257 257 254 250 245 245 251 255 255 255 251 239 227 218 213 211 212 215 220 227 233 233 228 223 222 224 227 229 226 224 226 222 197 181
324 324 327 328 326 327 330 327 325 334 339 332 323 321 322 321 320 318 312 308 310 314 306 298 295 288 276 271 271 267 263 261 264 270 271 265 262 265 263 254 256 268 273 273 271 273 280 284 277 269 267 265 261 260 263 262 258 252 249 250 250 249 251 253 248 239 230 220 213 213 219 223 228 236 237 229 220 217 219 224 228 228 225 226 224 208 185
322 325 326 324 323 328 332 334 338 341 337 331 324 322 324 325 323 319 318 321 322 319 312 305 298 291 285 279 274 272 271 268 266 268 268 263 265 270 261 250 257 256 243 233 230 236 254 266 266 265 269 271 268 266 267 266 263 259 254 251 249 247 247 248 246 242 238 230 222 222 225 226 229 235 235 229 223 220 219 220 223 223 222 225 229 222 200
320 322 324 324 324 326 332 345 353 341 327 326 328 327 326 327 323 316 319 329 330 324 320 315 304 297 295 291 282 278 282 287 284 275 263 251 252 252 242 249 276 287 278 260 260 262 259 260 261 264 269 271 272 272 273 271 268 263 258 253 250 248 246 246 244 242 239 235 230 228 228 230 233 234 231 227 224 223 225 229 229 223 215 217 226 230 218
317 322 325 322 320 327 339 354 356 334 321 325 329 328 327 327 322 317 326 338 337 334 337 336 327 316 307 301 297 298 308 312 302 287 272 257 252 252 253 264 288 306 313 315 318 301 270 258 257 265 274 276 275 277 280 279 274 266 260 256 252 247 244 244 245 244 241 238 236 235 234 236 237 234 229 225 221 220 228 237 234 222 209 209 219 231 231
315 322 323 317 323 340 352 352 342 332 330 330 327 326 331 332 325 322 338 351 346 348 356 355 348 337 320 308 309 318 322 315 306 297 288 277 263 267 287 299 307 315 315 314 318 314 297 288 293 302 303 301 298 293 287 280 272 267 262 258 255 252 248 245 243 242 241 240 239 237 236 237 238 237 230 220 215 220 231 232 219 204 199 201 209 224 233
316 321 319 317 329 350 349 328 319 322 323 319 314 315 328 335 330 333 347 352 348 355 4 2 357 355 346 334 334 335 320 308 307 311 314 319 360 1 340 334 339 348 344 335 329 323 327 337 337 327 317 312 308 301 291 277 266 261 260 259 258 259 257 252 246 242 239 238 237 236 234 234 238 241 233 217 214 223 232 221 197 188 189 193 198 211 226
318 318 316 318 327 333 321 315 316 314 310 309 312 321 335 340 343 349 353 351 353 4 9 6 6 11 13 5 358 352 339 324 329 345 356 12 38 15 359 2 5 2 359 1 5 13 7 352 341 330 322 321 318 307 291 277 267 261 260 261 261 261 261 258 252 243 234 232 233 234 233 235 240 242 236 230 230 231 222 197 178 175 183 191 197 204 206
314 314 315 317 320 320 318 319 320 316 316 326 341 344 340 340 348 358 358 355 2 11 11 9 11 15 14 10 9 6 356 350 8 21 27 35 43 40 34 32 24 18 26 34 35 28 15 2 352 344 338 339 338 329 308 290 278 271 268 266 264 262 260 259 258 253 243 236 234 232 230 234 242 243 229 219 220 219 208 190 177 173 181 191 197 195 182
312 313 313 312 312 314 316 316 317 322 333 343 349 346 337 333 339 355 4 2 2 7 9 11 12 8 2 9 24 27 21 22 32 33 32 35 39 41 43 42 37 37 44 48 43 35 29 25 23 18 9 3 4 5 2 350 321 290 276 270 268 267 265 261 262 265 260 246 238 236 236 237 244 245 229 200 187 190 190 183 172 163 164 170 176 176 169
310 310 308 308 308 310 313 317 322 330 336 338 342 346 339 332 335 350 1 359 359 5 12 11 6 356 356 22 32 34 37 41 42 39 38 43 49 54 55 52 48 47 47 47 45 43 41 39 39 37 33 32 33 33 33 39 46 45 35 338 274 272 266 254 252 260 260 240 228 230 234 232 230 228 215 188 170 166 163 155 144 137 137 142 146 148 149
310 306 304 305 305 305 311 320 324 326 328 331 335 339 338 337 338 347 355 356 357 3 14 14 6 0 27 50 42 39 49 56 56 53 52 53 53 55 56 54 51 49 48 46 46 47 45 43 44 48 50 50 52 54 56 57 58 59 63 71 78 82 86 94 101 98 94 102 118 126 126 130 139 145 143 136 132 131 130 127 125 124 126 128 128 123 119
298 292 291 292 288 292 309 313 308 309 317 320 320 324 332 336 335 343 355 356 349 350 11 20 13 8 30 51 46 41 48 55 54 52 53 53 51 50 50 49 48 47 46 44 44 45 44 42 44 50 54 56 56 57 58 60 61 62 64 67 71 75 79 84 88 87 85 86 92 97 98 100 105 109 108 107 107 109 109 111 115 116 115 116 118 118 114
295 293 299 305 297 305 320 320 313 311 316 314 310 318 328 327 324 336 358 356 343 349 15 26 11 4 20 39 42 39 41 45 46 45 47 49 47 44 43 43 43 44 44 44 43 43 42 42 43 47 52 57 59 58 59 62 65 67 69 71 73 74 76 79 82 83 82 82 86 91 94 96 96 97 98 100 103 104 103 104 109 111 109 108 108 106 103